GW3092 Weather Reports


time (UTC)temp
F
wind
direction
speed
knots
gust
knots
rain 1hr
in
rain 24hr
in
rain mn
in
humidity
%
barometer
mb
20260508004544 53 85 6.1 8.7 0.00 0.00 0.00 87 1016.5
20260508003057 53 330 6.1 8.7 0.00 0.00 0.00 87 1016.5
20260508001545 55 107 2.6 6.1 0.00 0.00 0.00 86 1016.5
20260508000045 54 92 2.6 5.2 0.00 0.00 0.00 84 1016.5
20260507234540 55 96 2.6 5.2 0.00 0.00 0.00 83 1016.6
20260507233044 56 118 1.7 5.2 0.00 0.00 0.00 83 1016.8
20260507231544 56 128 2.6 5.2 0.00 0.00 0.00 84 1016.7
20260507230044 54 87 4.3 7.0 0.00 0.00 0.00 86 1016.7
20260507224600 54 94 5.2 8.7 0.00 0.00 0.00 86 1016.7
20260507223050 54 330 4.3 7.0 0.00 0.00 0.00 85 1016.9
20260507221539 55 67 2.6 5.2 0.00 0.00 0.00 85 1016.9
20260507220044 56 193 1.7 3.5 0.00 0.00 0.00 86 1016.8
20260507214542 57 194 0.9 2.6 0.00 0.00 0.00 86 1016.7
20260507213043 58 0 0.0 1.7 0.00 0.00 0.00 86 1016.7
20260507211554 58 193 1.7 3.5 0.00 0.00 0.00 86 1016.6
20260507210041 57 0 0.0 0.9 0.00 0.00 0.00 86 1016.6
20260507204549 57 0 0.0 2.6 0.00 0.00 0.00 87 1016.5
20260507203047 57 193 1.7 3.5 0.00 0.00 0.00 87 1016.4
20260507201543 57 0 0.0 0.0 0.00 0.00 0.00 87 1016.2
20260507194541 58 193 1.7 3.5 0.00 0.00 0.00 86 1015.9
20260507193039 58 193 1.7 2.6 0.00 0.00 0.00 86 1015.6
20260507191551 58 0 0.0 1.7 0.00 0.00 0.00 85 1015.6
20260507190045 58 194 0.9 4.3 0.00 0.00 0.00 85 1015.4
20260507184543 59 194 1.7 2.6 0.00 0.00 0.00 84 1015.2
20260507183043 59 193 0.0 1.7 0.00 0.00 0.00 82 1015.0
20260507181542 60 193 0.9 2.6 0.00 0.00 0.00 81 1015.1
20260507180045 62 193 0.9 2.6 0.00 0.00 0.00 77 1015.0
20260507174549 62 0 0.0 2.6 0.00 0.04 0.00 77 1014.8
20260507173044 61 0 0.0 2.6 0.00 0.04 0.00 77 1014.8
20260507171542 61 0 0.0 5.2 0.00 0.04 0.00 75 1014.6
20260507170043 61 0 2.6 6.1 0.00 0.04 0.00 76 1014.7
20260507164541 61 156 1.7 7.0 0.00 0.06 0.00 79 1014.7
20260507163039 60 224 5.2 7.8 0.00 0.06 0.00 79 1014.9
20260507161545 60 249 2.6 7.8 0.00 0.06 0.00 79 1014.6
20260507160044 60 224 5.2 9.6 0.00 0.06 0.00 79 1015.0
20260507154544 61 189 6.1 13.9 0.00 0.06 0.00 78 1014.6
20260507153042 63 241 6.1 14.8 0.00 0.06 0.00 72 1014.5
20260507151543 63 254 7.0 13.9 0.00 0.06 0.00 68 1014.2
20260507150038 64 209 4.3 13.9 0.00 0.06 0.00 60 1013.8
20260507144538 64 219 5.2 14.8 0.00 0.06 0.00 62 1013.7
20260507143044 63 188 9.6 14.8 0.00 0.06 0.00 69 1013.7
20260507141543 64 203 7.8 13.0 0.00 0.06 0.00 72 1013.7
20260507140056 64 202 8.7 13.0 0.00 0.06 0.00 74 1013.9
20260507134541 65 214 7.0 10.4 0.00 0.06 0.00 77 1014.0
20260507133040 65 239 7.0 11.3 0.00 0.06 0.00 77 1013.9
20260507131547 64 235 7.0 12.2 0.00 0.06 0.00 78 1013.9
20260507130043 65 245 8.7 13.0 0.00 0.06 0.00 78 1014.1
20260507124544 65 243 7.0 13.0 0.00 0.07 0.00 78 1014.2
20260507123043 63 246 8.7 14.8 0.00 0.07 0.00 77 1014.0
20260507121540 64 243 8.7 13.0 0.00 0.07 0.00 77 1014.1
20260507120039 64 231 7.8 13.9 0.00 0.07 0.00 76 1014.1
20260507114538 64 246 8.7 13.9 0.00 0.07 0.00 76 1014.2
20260507113044 64 209 7.0 13.9 0.00 0.07 0.00 76 1014.3
20260507111547 63 219 6.1 13.9 0.00 0.07 0.00 77 1014.3
20260507110049 64 257 7.8 13.9 0.00 0.07 0.00 76 1014.5
20260507104541 62 205 7.0 14.8 0.00 0.10 0.00 77 1014.5
20260507103039 63 189 7.0 13.0 0.00 0.10 0.00 77 1014.7
20260507101600 62 206 7.8 16.5 0.00 0.10 0.00 78 1014.7
20260507100045 63 226 10.4 17.4 0.00 0.10 0.00 78 1014.7
20260507094554 63 216 7.0 11.3 0.00 0.22 0.00 79 1014.5
20260507093042 63 233 7.8 13.9 0.00 0.22 0.00 81 1014.4
20260507091553 62 247 8.7 14.8 0.00 0.22 0.00 81 1014.4
20260507090051 62 280 7.0 15.6 0.00 0.22 0.00 81 1014.3
20260507084538 61 247 8.7 13.0 0.00 0.38 0.00 82 1014.3
20260507083045 62 218 3.5 13.0 0.00 0.38 0.00 83 1014.3
20260507081553 61 168 3.5 13.9 0.00 0.38 0.00 86 1014.1
20260507080042 60 193 4.3 13.0 0.00 0.38 0.00 86 1014.0
20260507074541 60 181 7.8 13.0 0.00 0.51 0.00 86 1013.8
20260507073054 60 175 5.2 13.0 0.00 0.51 0.00 86 1013.8
20260507071538 60 0 7.8 17.4 0.00 0.51 0.00 88 1013.7
20260507070126 60 173 5.2 9.6 0.00 0.51 0.00 88 1013.5
20260507064550 60 210 3.5 10.4 0.00 0.62 0.00 89 1013.4
20260507063044 59 190 4.3 10.4 0.00 0.62 0.00 91 1013.2
20260507061543 58 179 2.6 10.4 0.00 0.62 0.00 91 1013.3
20260507060043 58 182 3.5 7.0 0.00 0.62 0.00 92 1013.2
20260507054546 58 204 2.6 7.8 0.00 0.62 0.00 92 1013.2
20260507053042 57 172 4.3 7.8 0.00 0.62 0.00 93 1012.9
20260507051539 57 145 0.9 7.8 0.00 0.62 0.00 93 1012.9
20260507050044 57 158 3.5 8.7 0.00 0.62 0.00 93 1012.7
20260507044545 57 146 4.3 7.0 0.00 0.62 0.00 93 1012.5
20260507043041 57 167 4.3 8.7 0.00 0.62 0.00 93 1012.3
20260507041538 57 166 4.3 7.8 0.00 0.62 0.00 93 1012.3
20260507040049 56 175 4.3 6.1 0.00 0.62 0.00 93 1012.1
20260507034547 56 137 3.5 7.8 0.00 0.62 0.00 93 1012.0
20260507033044 57 161 4.3 10.4 0.00 0.62 0.00 93 1011.9
20260507031542 57 183 3.5 7.8 0.00 0.62 0.00 93 1012.1
20260507030047 57 209 2.6 7.8 0.00 0.62 0.00 93 1012.1
20260507024545 57 181 2.6 8.7 0.00 0.62 0.00 93 1012.0
20260507023037 57 183 0.9 7.8 0.00 0.62 0.00 93 1012.0
20260507021619 57 204 1.7 8.7 0.00 0.62 0.00 93 1012.1
20260507020040 57 195 1.7 10.4 0.00 0.62 0.00 92 1012.0
20260507014552 57 168 2.6 10.4 0.00 0.62 0.00 92 1012.1
20260507013047 57 330 2.6 12.2 0.00 0.62 0.00 92 1012.0
20260507011545 57 247 3.5 11.3 0.00 0.62 0.00 92 1012.0
20260507010050 57 154 2.6 11.3 0.00 0.62 0.00 92 1012.1